Regional Weather Roundup
Issued by NWS

Home | Current Version | Previous Version | Graphics & Text | Print | Product List | Glossary Off
Versions: 1 2 3 4 5 6 7 8 9 10 11 12 13 14 15 16 17 18 19 20 21 22 23 24 25 26 27 28 29 30 31 32 33 34 35 36 37 38 39 40 41 42 43 44 45 46 47 48 49 50

000
ASUS43 KMKX 221900
RWRWI

WISCONSIN REGIONAL WEATHER ROUNDUP
NATIONAL WEATHER SERVICE MILWAUKEE/SULLIVAN WI
200 PM CDT WED OCT 22 2014

NOTE: "FAIR" INDICATES FEW OR NO CLOUDS BELOW 12,000 FEET WITH NO
SIGNIFICANT WEATHER AND/OR OBSTRUCTIONS TO VISIBILITY.

WIZ001-002-006>008-014>016-023>028-222000-
NORTHWEST WISCONSIN

CITY           SKY/WX    TMP DP  RH WIND       PRES   REMARKS
SUPERIOR ARPT  MOSUNNY   57  39  51 S7G17     30.12F
ASHLAND        SUNNY     60  34  37 S12       30.18F
HAYWARD        SUNNY     55  35  47 S13       30.17F
SIREN          CLOUDY    55  38  53 S12G17    30.15
CUMBERLAND     SUNNY     54  36  50 S13G18    30.18F
RICE LAKE      SUNNY     55  37  51 SE13G20   30.21F
CHETEK         SUNNY     55  39  55 SE13G21   30.20F
LADYSMITH      SUNNY     54  36  50 SE12      30.24F
EAU CLAIRE     SUNNY     57  36  45 SE15      30.20F
MENOMONIE      SUNNY     57  37  47 SE15G22   30.20F
NEW RICHMOND   PTSUNNY   56  38  50 SE14G20   30.15F
OSCEOLA        CLOUDY    55  40  57 S18G24    30.17F
$$

WIZ003>005-009-010-017-018-222000-
NORTH CENTRAL WISCONSIN

CITY           SKY/WX    TMP DP  RH WIND       PRES   REMARKS
MANITOWISH WTR MOSUNNY   52  28  39 S14       30.23F
ARBOR VITAE    SUNNY     55  30  38 S10G16    30.24F
WOODRUFF       SUNNY     55  30  38 S10G16    30.24F
RHINELANDER    SUNNY     53  26  35 SE9       30.26F
EAGLE RIVER    SUNNY     52  26  36 S7        30.25F
LAND O LAKES   SUNNY     54  23  30 S9        30.25F
PHILLIPS       MOSUNNY   52  29  41 S14G21    30.23F
TOMAHAWK       SUNNY     53  31  42 CALM      30.26F
MEDFORD        SUNNY     49  33  52 SE10G17   30.25F
MERRILL        SUNNY     53  31  43 S8        30.27F
$$

WIZ029-030-035-036-043>047-222000-
CENTRAL WISCONSIN

CITY           SKY/WX    TMP DP  RH WIND       PRES   REMARKS
WAUSAU           N/A    N/A N/A N/A MISG      30.26F
MOSINEE        SUNNY     50  34  53 SE10      30.28F
MARSHFIELD     SUNNY     55  36  48 S10       30.25F
STEVENS POINT  SUNNY     51  33  48 S8        30.29F
WAUPACA        SUNNY     55  37  49 S7        30.32F HAZE
WAUTOMA        NOT AVBL
WISC RAPIDS    SUNNY     54  34  46 S13       30.29F
CAMP DOUGLAS   NOT AVBL
$$

WIZ011>013-019>022-031-037>040-048>050-222000-
NORTHEAST WISCONSIN

CITY           SKY/WX    TMP DP  RH WIND       PRES   REMARKS
ANTIGO         SUNNY     49  33  53 SE12G18   30.29F
SHAWANO        SUNNY     54  37  51 SE6       30.33F
OCONTO         SUNNY     49  34  56 S7        30.34F
STURGEON BAY   SUNNY     48  36  61 E8        30.35F
GREEN BAY      SUNNY     53  37  54 MISG      30.33F
MANITOWOC      NOT AVBL
APPLETON       MOSUNNY   52  36  54 S6        30.33F
CLINTONVILLE   SUNNY     52  36  54 S7        30.32F
OSHKOSH        SUNNY     54  39  57 S5        30.31F
$$

WIZ032>034-041-042-053>061-222000-
SOUTHWEST WISCONSIN

CITY           SKY/WX    TMP DP  RH WIND       PRES   REMARKS
LA CROSSE      SUNNY     59  37  44 S13       30.23F
SPARTA         SUNNY     57  34  41 SE10      30.26F
VIROQUA        SUNNY     56  37  50 S10       30.26F
BOSCOBEL       SUNNY     59  38  45 VRB5      30.27F
PRAIRIE DU CHI SUNNY     56  37  48 SE5       30.26F
PLATTEVILLE    SUNNY     55  39  54 SE6       30.29F
$$

WIZ056-057-062-063-064-067-068-222000-
SOUTH CENTRAL WISCONSIN

CITY           SKY/WX    TMP DP  RH WIND       PRES   REMARKS
REEDSBURG      SUNNY     54  39  57 S6        30.28F
BARABOO/DELLS  SUNNY     55  37  50 SE6       30.29F
LONE ROCK      NOT AVBL
MINERAL POINT  SUNNY     57  36  44 S7        30.28F
MADISON        MOSUNNY   56  38  50 S7        30.29F
MIDDLETON      SUNNY     58  36  44 S8        30.30F
WATERTOWN      SUNNY     55  38  54 SE3       30.31F
MONROE         SUNNY     55  39  54 SE5       30.30F
JANESVILLE     SUNNY     57  36  44 S5        30.30F
$$

WIZ051-052-058>065-066-070>072-222000-
SOUTHEAST WISCONSIN

CITY           SKY/WX    TMP DP  RH WIND       PRES   REMARKS
MILWAUKEE      MOSUNNY   51  40  65 E13       30.34F
WAUKESHA       SUNNY     54  39  58 E5        30.33F
MILWAUKEE/TIMM SUNNY     54  37  54 SE7       30.34F
RACINE         SUNNY     51  39  63 SE6       30.35F
BURLINGTON     SUNNY     55  37  52 CALM      30.32F
KENOSHA        SUNNY     53  40  61 VRB7      30.33F
FOND DU LAC    SUNNY     56  38  50 S9        30.31F
SHEBOYGAN      SUNNY     53  37  54 S8        30.33F
WEST BEND      SUNNY     54  36  50 SE6       30.33F
JUNEAU         SUNNY     53  38  57 S6        30.32F
$$

LSZ147-162-222000-
LAKE SUPERIOR

STATION/POSITION TIME  TEMP    WIND        PRES    WAVE
                       AIR SEA DIR/SP/G            HT/PER
                 (UTC) (F)     (DEG/KT/KT) (MB)    (FT/S)
W MID LAKE BUOY  1750   45 46  140/ 10/ 12 1024.4F   2/ 4
DEVILS ISLAND    1800   50     150/ 10/ 13 1023.2F
PORT WING        1800   56     200/ 11/ 17 1021.7
SAXON HARBOR     1800   57     200/  4/ 12 1022.7F
$$

LMZ867-665-643>646-222000-
LAKE MICHIGAN

STATION/POSITION TIME  TEMP    WIND        PRES    WAVE
                       AIR SEA DIR/SP/G            HT/PER
                 (UTC) (F)     (DEG/KT/KT) (MB)    (FT/S)
CHAMBERS ISLAND  1800   47     120/  6/  8 1028.1F
N MID LAKE BUOY  1750   42 51  140/  6/  8 1029.5F   1
NORTHPORT PIER   1800   44     140/  7/ 10 1028.4F
KEWAUNEE LAKESHO 1800   46     100/  4/  6 1027.4F
SHEBOYGAN LAKESH 1800   47 50  140/  9/ 10 1028.7F
PORT WASHINGTON  1800   50     130/  6/  8 1028.4
ATWATER BUOY     1800   49     130/  8/ 10 1028.8F
MILWAUKEE LAKESH 1800   49     110/  8/  9   N/A
S MID LAKE BUOY  1750   47 54  130/  4/  6 1028.8F   1/ 3
KENOSHA   LAKESH 1800   52     130/  6/  8 1027.4F
$$

TC  - TEMPERATURE IN CELSIUS
VSB - VISIBILITY IN STATUTE MILES
WCI - WIND CHILL INDEX
HX  - HEAT INDEX




USA.gov is the U.S. government's official web portal to all federal, state and local government web resources and services.